Location: ??????
(31.2056°N, 45.3906°E)
Time: 19:28:16
(UTC+00:00)

COSMOS 2455 - Pass Details

Date: 09 April 2020
Orbit: 900 x 910 km, 67.1° (Epoch: 28 May)

Event Time Altitude Azimuth Distance (km) Brightness Sun altitude
Rises 16:38:11 0° 348° (NNW) 3,540 6.4 -16.3°
Reaches altitude 10° 16:41:07 10° 0° (N) 2,596 5.5 -16.9°
Maximum altitude 16:46:08 27° 57° (ENE) 1,677 3.9 -17.9°
Enters shadow 16:47:35 24° 80° (E) 1,770 3.9 -18.2°
